Miscellaneous Local Product
Issued by NWS Hastings, NE

Home | Current Version | Previous Version | Graphics & Text | Print | Product List | Glossary On
Versions: 1 2 3 4 5 6 7 8 9 10 11 12 13 14 15 16 17 18 19 20 21 22 23 24 25 26 27 28 29 30 31 32 33 34 35 36 37 38 39 40 41 42 43 44 45 46 47 48 49 50
000
AXUS43 KGID 230602
MISGRI

GID CWA HOURLY WEATHER ROUNDUP
NATIONAL WEATHER SERVICE HASTINGS NE
1200 AM CST SUN NOV 23 2014

NOTE: "FAIR" INDICATES FEW OR NO CLOUDS BELOW 12,000 FEET WITH NO
SIGNIFICANT WEATHER AND/OR OBSTRUCTIONS TO VISIBILITY.

...SOUTH CENTRAL NEBRASKA...

CITY           SKY/WX    TMP DP  RH WIND       PRES   REMARKS
GRAND ISLAND   MOCLDY    53  50  89 S15       29.51F
HASTINGS       CLOUDY    54  48  80 S13       29.51F
KEARNEY        CLOUDY    52  48  87 S9        29.53S
ORD            CLOUDY    42  33  70 CALM      29.49F
YORK           CLOUDY    54  50  87 S10       29.53F
AURORA         CLOUDY    55  52  92 S15       29.52F
LEXINGTON      CLOUDY    50  32  51 S12       29.52F
HOLDREGE       CLOUDY    50  47  89 S9        29.51S
HEBRON         CLOUDY    58  51  78 S15G23    29.54F

...NEBRASKA PANHANDLE...

CITY           SKY/WX    TMP DP  RH WIND       PRES   REMARKS
CHADRON        PTCLDY    41  32  70 W16G25    29.52R
ALLIANCE       CLOUDY    35  28  75 W7        29.50S WCI  29
SCOTTSBLUFF    CLOUDY    44  30  57 NW13      29.51S
SIDNEY         MOCLDY    43  25  49 NW10      29.53F

...WESTERN AND NORTH CENTRAL NEBRASKA...

CITY           SKY/WX    TMP DP  RH WIND       PRES   REMARKS
VALENTINE      CLOUDY    40  37  89 SW10      29.43F WCI  33
AINSWORTH      CLOUDY    43  37  79 S8        29.44F
ONEILL         CLOUDY    50  36  58 SW7       29.47S
BROKEN BOW     CLOUDY    44  30  57 CALM      29.49F
IMPERIAL       CLOUDY    42  18  37 CALM      29.51R
NORTH PLATTE   CLOUDY    38  26  62 E5        29.50S WCI  34
MCCOOK         CLOUDY    45  30  55 SE7       29.50F

...EASTERN NEBRASKA...

CITY           SKY/WX    TMP DP  RH WIND       PRES   REMARKS
NORFOLK        CLOUDY    52  49  89 S21G26    29.48S
SO SIOUX CITY  CLOUDY    53  50  89 S8        29.50F
TEKAMAH        MOCLDY    54  50  86 S13       29.53F
COLUMBUS       CLOUDY    54  48  82 S13       29.52F
ALBION         CLOUDY    46  43  89 S6        29.50F FOG
OMAHA EPPLEY   DRIZZLE   54  52  93 S16       29.56F
OFFUTT AFB     CLOUDY    54  52  94 S10       29.56F
MILLARD        CLOUDY    56  53  87 S7        29.56F
LINCOLN        CLOUDY    55  51  86 S10       29.55F
NEBRASKA CITY  CLOUDY    54  53  99 S15       29.60F
BEATRICE       CLOUDY    56  52  88 S14       29.57F
FALLS CITY     CLOUDY    55  52  89 S8        29.63F

...NORTHERN KANSAS...

CITY           SKY/WX    TMP DP  RH WIND       PRES   REMARKS
GOODLAND       CLOUDY    38  23  55 SW3       29.49F
HILL CITY      CLOUDY    54  49  83 S12       29.51F
NORTON         MOCLDY    50  45  81 S8        29.48F
PHILLIPSBURG   CLOUDY    57  52  82 S8        29.52F
SMITH CENTER   CLOUDY    54  48  82 S3        29.53F
BELOIT         CLOUDY    57  52  82 S13G20    29.55S
HAYS           CLOUDY    55  46  71 S22       29.51F
RUSSELL        CLOUDY    55  51  86 S25       29.52F
CONCORDIA      CLOUDY    56  52  86 S22G31    29.55S
SALINA         CLOUDY    56  50  80 S20G31    29.58F
TOPEKA         CLOUDY    57  52  83 S7        29.65F



USA.gov is the U.S. government's official web portal to all federal, state and local government web resources and services.